Other Public Products
Issued by NWS Grand Forks, ND

Home | Current Version | Previous Version | Graphics & Text | Print | Product List | Glossary On
Versions: 1 2 3 4 5 6 7 8 9 10 11 12 13 14 15 16 17 18 19 20 21 22 23 24 25 26 27 28 29 30 31 32 33 34 35 36 37 38 39 40 41 42 43 44 45 46 47 48 49 50
000
FPUS83 KFGF 172031
OPUFGF
PRAIRIE TO PINES WEATHER ROUNDUP
NATIONAL WEATHER SERVICE EASTERN NORTH DAKOTA/GRAND FORKS ND
200 PM CST SAT FEB 17 2018

 **SATELLITE DATA USED TO AUGMENT SKY COVER AT AUTOMATED STATIONS**
 *****  WEATHER ACROSS EASTERN NORTH DAKOTA  *****

CITY           SKY/WX    TMP DP  RH WIND       PRES   REMARKS
GRAND FORKS    FAIR      22   9  57 NW18      29.93R WCI   7
GRND FORKS AFB FAIR      22   4  46 NW15      29.93R WCI   8
GRND FORKS NWS   N/A     22   9  58 NW22      29.91R WCI   6
BUXTON           N/A     22  14  70 NW14        N/A  WCI   9
DEVILS LAKE    FAIR      18   9  68 W18       29.91F WCI   2
FARGO          FAIR      24  11  57 NW20      29.97R WCI  10
WAHPETON ARPT  FAIR      28   5  37 NW21      29.97R WCI  15
$$

 *****  WEATHER ACROSS CENTRAL AND WESTERN NORTH DAKOTA  *****

CITY           SKY/WX    TMP DP  RH WIND       PRES   REMARKS
JAMESTOWN      FAIR      23  10  57 NW15      29.95S WCI  10
BISMARCK       FAIR      24  11  57 NW14      30.00S WCI  12
MINOT          FAIR      20   8  60 W20       29.93S WCI   4
MINOT AFB      FAIR      18   7  62 NW21      29.92R WCI   1
GARRISON         N/A     20   8  60 W18G28    29.95S WCI   5
WILLISTON      FAIR      17   6  62 NW13      29.98F WCI   4
DICKINSON      FAIR      19   8  62 W14       29.95S WCI   6
HETTINGER      FAIR      18   8  65 NW22      29.98F WCI   1
$$

 *****  OTHER OBSERVATIONS NORTHEAST NORTH DAKOTA  *****

CITY           SKY/WX    TMP DP  RH WIND       PRES   REMARKS
WALHALLA       FAIR      21   5  49 W17G24    29.88S WCI   7
LANGDON        MOCLDY    19   9  63 W24       29.85S WCI   2
CAVALIER         N/A     21   5  49 W20G25    29.89S WCI   6
GRAFTON        FAIR      21   5  49 W17G24    29.93S WCI   7
CANDO          MOCLDY    19  10  68 NW24G32   29.91S WCI   2
FORT TOTTEN      N/A     22   6  51 W8        29.95S WCI  12
ROLLA          MOCLDY    16   5  62 W23G30    29.86S WCI  -2
RUGBY          MOCLDY    19  10  68 W23G29    29.90F WCI   2
 ***** THE ABOVE OBSERVATIONS ARE NON NWS ARE NOT QUALITY
        CONTROLLED AND MAY MIS-REPORT RAIN FOR SNOW...
$$

 *****  OTHER OBSERVATIONS SOUTHEAST NORTH DAKOTA *****

CITY           SKY/WX    TMP DP  RH WIND       PRES   REMARKS
COOPERSTOWN    FAIR      19   9  63 W16G23    29.95R WCI   5
VALLEY CITY    FAIR      21   9  58 NW17      29.97S WCI   7
OAKES            N/A     27   7  43 NW22G28   29.98R WCI  12
GWINNER          N/A     28   7  40 NW16G24   29.97S WCI  17
SHEYENNE NWR     N/A     26   6  42 NW14      29.95  WCI  14
BUFFALO          N/A     21   5  49 NE18        N/A  WCI   7
WYNDMERE       NOT AVBL
 ***** THE ABOVE OBSERVATIONS ARE NON NWS ARE NOT QUALITY
       CONTROLLED AND MAY MIS-REPORT RAIN FOR SNOW...
$$

  *****  WEATHER ACROSS NORTHERN MINNESOTA  *****

CITY           SKY/WX    TMP DP  RH WIND       PRES   REMARKS
FLAG ISLAND    LGT SNOW  18   0  45 W24G30    29.77F WCI   0
WARROAD        FAIR      18   7  62 W13G21    29.82S WCI   4
ROSEAU         NOT AVBL
HALLOCK        FAIR      21   5  49 W17G24    29.88S WCI   7
THF RVR FALLS  FAIR      19   8  62 NW17      29.89R WCI   4
HALSTAD        NOT AVBL
FOSSTON        FAIR      21   9  58 W14       29.90R WCI   8
BAUDETTE       FAIR      17   6  62 W16G29    29.79R WCI   2
WASKISH        FAIR      19  10  68 W15       29.83R WCI   5
CROOKSTON      FAIR      21  10  63 NW18      29.94R WCI   6
$$
  *****  WEATHER ACROSS CENTRAL AND WEST MINNESOTA  *****

CITY           SKY/WX    TMP DP  RH WIND       PRES   REMARKS
BEMIDJI        FAIR      20   9  61 W18       29.85R WCI   5
PARK RAPIDS    FAIR      22  12  65 W21       29.85S WCI   6
WADENA         MIX PCPN  21  12  68 NW15      29.89R WCI   8
DETROIT LAKES  FAIR      23  12  63 NW20      29.92R WCI   8
MOORHEAD       FAIR      25   9  50 NW22      29.97R WCI  10
FERGUS FALLS   FAIR      25  10  54 NW23      29.95R WCI  10
ELBOW LAKE     FAIR      28  10  45 NW22G29   29.94R WCI  14
MORRIS MN      FAIR      34   9  35 NW24G33   29.92S WCI  21
STAPLES        FAIR      25  12  58 W20G25    29.88R WCI  11
WHEATON        FAIR      30   7  37 NW23      29.98S WCI  17
$$
  *****  WEATHER ELSEWHERE ACROSS MINNESOTA  *****

CITY           SKY/WX    TMP DP  RH WIND       PRES   REMARKS
DULUTH         PTSUNNY   28  12  51 W21G28    29.75S WCI  15
INTRNTL FALLS  FAIR      20   2  45 NW16G24   29.77S WCI   6
ELY            CLOUDY    21   9  58 W15G24    29.72S WCI   8
CLOQUET        CLOUDY    28  10  47 W14G23    29.78S WCI  17
BRAINERD       FAIR      29  12  49 W15G23    29.85S WCI  18
HIBBING        CLOUDY    22   9  57 NW15G23   29.78R WCI   9
ALEXANDRIA     FAIR      28  11  48 NW22G31   29.90R WCI  14
SAINT CLOUD    FAIR      33  13  43 W21G28    29.87S WCI  21
MINNEAPOLIS    PTSUNNY   35  23  61 W10G21    29.88S
$$

  *****  WEATHER ACROSS SOUTH DAKOTA  *****

CITY           SKY/WX    TMP DP  RH WIND       PRES   REMARKS
SIOUX FALLS    PTSUNNY   32  26  78 W15       30.00S WCI  22
BROOKINGS      FAIR      32  21  64 NW18      29.96R WCI  20
WATERTOWN      PTSUNNY   32  18  56 W15G23    29.95R WCI  22
HURON          FAIR      32  22  66 NW15      30.04S WCI  22
SISSETON         N/A     33  10  38 NW24G32   29.94S WCI  20
ABERDEEN       FAIR      32  14  47 NW21      30.01S WCI  20
MITCHELL       PTSUNNY   31  25  78 W16       30.06R WCI  20
PIERRE         FAIR      28  21  75 W15       30.05F WCI  16
MOBRIDGE       FAIR      27  16  63 NW13      29.99S WCI  16
RAPID CITY     CLOUDY    29  21  72 N13       29.97F WCI  19
$$

  *****  SOME WEATHER IN NEARBY STATES *****

CITY           SKY/WX    TMP DP  RH WIND       PRES   REMARKS
GLASGOW MT     PTSUNNY   15   6  67 NE5       29.96F WCI   8
GREAT FALLS MT LGT SNOW  18  15  88 E13       29.68F FOG     WCI   5
CHEYENNE WY    FAIR      45   8  22 W29G36    29.97F
SCOTTSBLUFF NE FAIR      51  15  23 W22G30    29.96F
OMAHA NE       FAIR      47  26  44 NW14      30.02S
DES MOINES IA  FAIR      37  27  67 W16       29.98R
DAVENPORT IA   LGT SNOW  32  28  85 W13       29.94R FOG     WCI  22
CHICAGO IL     CLOUDY    35  26  69 S9        29.92F
EAU CLAIRE WI  CLOUDY    27  22  81 SW8       29.85F WCI  19
LA CROSSE WI   CLOUDY    30  23  75 W6        29.90F WCI  24
$$

  *****  SOME NATIONAL WEATHER *****

CITY           SKY/WX    TMP DP  RH WIND       PRES   REMARKS
LA GUARDIA NY  PTSUNNY   38  21  50 SE12      30.32S
RALEIGH NC     CLOUDY    43  41  93 SE3       30.14F FOG
ATLANTA GA     PTSUNNY   76  60  57 SW14G26   30.07F
NEW ORLEANS LA PTSUNNY   81  64  56 W8        30.11F
OKLAHOMA CITY  PTSUNNY   56  31  38 N13       30.12F
ALBUQUERQUE NM PTSUNNY   53  22  29 VRB6      30.20F
SALT LAKE CITY FAIR      53  18  25 S22G30    30.08F
LOS ANGELES CA FAIR      71  39  31 SW9       30.12F
BOISE ID       CLOUDY    45  30  55 SE18G26   29.95F
SEATTLE WA     CLOUDY    48  44  86 SW35G48   29.60F
$$

*** WEATHER ACROSS MANITOBA...SASKATCHEWAN AND ONTARIO ***
                ***ONTARIO***

CITY           SKY/WX    TMP DP  RH WIND       PRES   REMARKS
GERALDTON      FLURRIES  19  10  68 W9G20     29.55S WCI   9
THUNDER BAY    MOSUNNY   28   9  43 W16G28    29.66S WCI  17
SIOUX LOOKOUT  CRYSTALS  16   1  53 W16G25    29.63S WCI   0
TORONTO        CLOUDY    30  18  59 S9        30.04F WCI  22
BIG TROUT LK   CLOUDY     0 -11  60 NW14      29.51R WCI -19
PICKLE LAKE    MOSUNNY   12   0  57 W18G25    29.49S WCI  -5
DRYDEN         LGT SNOW  16   1  53 W20G31    29.65  WCI  -1
KENORA         MOSUNNY   14  -2  48 W15G33    29.72S WCI  -1
$$
                *** MANITOBA***

CITY           SKY/WX    TMP DP  RH WIND       PRES   REMARKS
BRANDON        MOSUNNY   10  -2  56 NW18      29.88F WCI  -8
DAUPHIN        SUNNY     10   0  61 W22G28    29.82S WCI  -9
ISLAND LAKE    CLOUDY    -2 -13  60 W18G25    29.62R WCI -24
PILOT MOUND      N/A     12   3  67 NW14G21     N/A  WCI  -3
THE PAS        CLOUDY     5  -9  51 NW20G26   29.75S WCI -15
THOMPSON       FLURRIES  -6 -22  45 NW20G26   29.65R WCI -29
WINNIPEG       MOSUNNY   12   0  57 NW24      29.86R WCI  -8
LYNN LAKE      PTSUNNY  -11 -24  53 NW16G24   29.69R WCI -34
CHURCHILL      BLWGSNOW -29 -36  68 NW21G29   29.68R VSB 1/4 WCI -61
GILLAM         CLOUDY   -11 -22  58 N17       29.60R WCI -35
$$
                ***SASKATCHEWAN***

CITY           SKY/WX    TMP DP  RH WIND       PRES   REMARKS
ESTEVAN        MOSUNNY   10   1  67 NW22G30   29.93F WCI  -9
KINDERSLEY     MOSUNNY   10   0  61 NW8       29.89F WCI  -1
LLOYDMINSTER   PTSUNNY    9   0  66 W12G17    29.85F WCI  -6
PRINCE ALBERT  PTSUNNY   12  -4  48 NW16G24   29.85S WCI  -4
REGINA         PTSUNNY   10   1  67 NW15G24   29.90F WCI  -6
YORKTON        MOSUNNY    9   0  66 W18       29.83F WC



USA.gov is the U.S. government's official web portal to all federal, state and local government web resources and services.